コワルスキー彗星

P/2007 T2 ( Kowalski )

English version
Home page
Total 6,336 html files since Dec. 4, 1995
Updated on March 16, 2008

---------------------------------------------------------------------

・ プロフィール

発見日 2007年10月9日
発見光度 16.9等
発見者 R. A. Kowalski (Catalina Sky Survey)

・ 写真集

・ 軌道要素

Epoch 2007 Sept. 17.0 TT = JDT 2454360.5
T 2007 Sept. 19.02181 TT                                MPC
q   0.6958709            (2000.0)            P               Q
n   0.18146008     Peri.  358.54346     +0.99898607     -0.04339197
a   3.0899301      Node     4.00307     +0.04284831     +0.83461252
e   0.7747940      Incl.    9.89707     +0.01381513     +0.54912574
P   5.43

・ 星図

・ 光度変化

        m1 = 18.5 + 5 logΔ + 5.0 log r

---------------------------------------------------------------------

軌道要素はM.P.E.C. 2007-Y06に掲載されたものです。
星図はステラナビゲータ Ver.8 (アストロアーツ) で作成したものです。
光度グラフはComet for Windowsで作成したものです。

---------------------------------------------------------------------

Copyright(C) 1995-2008 Seiichi Yoshida (comet@aerith.net). All rights reserved.